Flag for Germany Weather past 2 weeks in Darmstadt, Hesse, Germany

Now
57 °F

Passing clouds.


Feels Like: 56 °F
Forecast: 51 / 70 °F
Wind: 7 mph from Northwest

Location: Frankfurt-M-Flughafen Airport

Current Time: Sep 2, 2015 at 12:56:39 AM

Latest Report: Sep 2, 2015 at 12:20 AM


Visibility: N/A

Pressure: 30.04 "Hg

Humidity: 88%

Dew point: 54 °F

Location of DarmstadtLocation

Historic Weather in Darmstadt — Graph

°F

Darmstadt temperature yesterday

Maximum temperature yesterday: 79 °F (at 12:20 PM)
Minimum temperature yesterday: 59 °F (at 9:50 PM)
Average temperature yesterday: 67 °F

Past Weeks' High & Low Weather Summary

 TemperatureHumidityPressure
High93 °F (Aug 31, 4:50 PM)100% (Aug 19, 5:20 AM)30.27 "Hg (Aug 19, 5:20 AM)
Low50 °F (Aug 19, 4:50 AM)21% (Aug 22, 3:20 PM)29.68 "Hg (Aug 23, 5:20 PM)
Average68 °F67%30.00 "Hg
* Reported Aug 17 11:20 PM — Sep 1 11:20 PM, Darmstadt, Weather by CustomWeather, © 2015

Note: Actual official high and low records may vary slightly from our data, if they occured in-between our weather recording intervals... More about our weather records

Advertising

Darmstadt weather history for previous 24 hours

 ConditionsComfort  
Time TempWeatherWind HumidityBarometerVisibility
11:20 PM
Tue, Sep 1
59 °FPassing clouds.5 mph82%30.04 "HgN/A
10:50 PM59 °FPassing clouds.7 mph82%30.04 "HgN/A
10:20 PM59 °FPassing clouds.12 mph82%30.04 "HgN/A
9:50 PM59 °FPassing clouds.8 mph88%30.01 "HgN/A
9:20 PM61 °FPassing clouds.8 mph83%30.01 "HgN/A
8:50 PM63 °FScattered clouds.9 mph77%30.01 "HgN/A
8:20 PM63 °FScattered clouds.10 mph77%29.98 "HgN/A
7:50 PM64 °FBroken clouds.12 mph73%29.98 "HgN/A
7:20 PM64 °FBroken clouds.9 mph78%29.98 "HgN/A
6:50 PM64 °FBroken clouds.10 mph73%29.95 "HgN/A
6:20 PM64 °FLight rain. Partly sunny.15 mph78%29.95 "HgN/A
5:50 PM64 °FLight rain. Broken clouds.12 mph78%29.95 "HgN/A
5:20 PM64 °FLight rain. Broken clouds.12 mph78%29.92 "HgN/A
4:50 PM64 °FBroken clouds.12 mph83%29.92 "HgN/A
4:20 PM64 °FBroken clouds.15 mph83%29.89 "HgN/A
3:50 PM64 °FLight rain. Partly sunny.8 mph94%29.89 "HgN/A
3:20 PM64 °FLight rain. Partly sunny.8 mph88%29.86 "Hg4 mi
2:50 PM64 °FLight rain. Partly sunny.8 mph88%29.86 "Hg4 mi
2:20 PM64 °FSprinkles. Partly sunny.12 mph88%29.83 "HgN/A
1:50 PM63 °FRain showers. Broken clouds.13 mph94%29.80 "Hg3 mi
1:20 PM72 °FScattered showers. Broken clouds.20 mph65%29.77 "HgN/A
12:50 PM79 °FBroken clouds.13 mph54%29.74 "HgN/A
12:20 PM79 °FBroken clouds.13 mph54%29.77 "HgN/A
11:50 AM75 °FBroken clouds.7 mph65%29.77 "HgN/A
11:20 AM75 °FBroken clouds.5 mph65%29.77 "HgN/A
10:50 AM73 °FBroken clouds.5 mph65%29.77 "HgN/A
10:20 AM72 °FBroken clouds.8 mph73%29.77 "HgN/A
9:50 AM72 °FBroken clouds.8 mph73%29.77 "HgN/A
9:20 AM72 °FBroken clouds.7 mph73%29.77 "HgN/A
8:50 AM72 °FPartly sunny.9 mph73%29.77 "HgN/A
8:20 AM70 °FScattered clouds.9 mph78%29.77 "HgN/A
7:50 AM70 °FScattered clouds.7 mph88%29.80 "HgN/A
7:20 AM66 °FPassing clouds.3 mph88%29.80 "HgN/A
6:50 AM66 °FPartly cloudy.2 mph94%29.80 "HgN/A
6:20 AM66 °FSprinkles. Partly cloudy.2 mph88%29.80 "HgN/A
5:50 AM66 °FSprinkles. Partly cloudy.3 mph88%29.80 "HgN/A
5:20 AM66 °FPartly cloudy.2 mph88%29.80 "HgN/A
4:50 AM66 °FClear.1 mph88%29.80 "Hg10 mi
4:20 AM68 °FClear.2 mph83%29.83 "Hg10 mi
3:50 AM66 °FClear.2 mph83%29.83 "Hg10 mi
3:20 AM68 °FClear.7 mph78%29.83 "Hg10 mi
2:50 AM72 °FClear.6 mph69%29.83 "Hg10 mi
2:20 AM70 °FPassing clouds.5 mph69%29.83 "HgN/A
1:50 AM72 °FPassing clouds.3 mph65%29.83 "HgN/A
1:20 AM70 °FClear.5 mph69%29.83 "Hg10 mi
12:50 AM70 °FPassing clouds.3 mph69%29.83 "HgN/A
12:20 AM70 °FClear.3 mph69%29.83 "Hg10 mi
Weather by CustomWeather, © 2015

See weather overviewHow to use our weather pages